| time (UTC) | temp F | wind direction | speed MPH | gust MPH | rain 1hr in | rain 24hr in | rain mn in | humidity % | barometer mb |
| 20260510173607 | 66 | 333 | 3.0 | 3.0 | 0.02 | 0.04 | 0.04 | 95 | 1016.8 |
| 20260510173104 | 66 | 90 | 1.0 | 2.0 | 0.17 | 0.04 | 0.04 | 95 | 1016.7 |
| 20260510172559 | 66 | 180 | 0.0 | 3.0 | 0.17 | 0.03 | 0.03 | 94 | 1017.0 |
| 20260510172056 | 66 | 56 | 0.0 | 2.0 | 0.07 | 0.01 | 0.01 | 93 | 1017.0 |
| 20260510171552 | 66 | 168 | 1.0 | 6.0 | 0.02 | 0.00 | 0.00 | 92 | 1017.2 |
| 20260510171050 | 66 | 235 | 3.0 | 7.0 | 0.00 | 0.00 | 0.00 | 91 | 1017.2 |
| 20260510170546 | 66 | 52 | 3.0 | 5.0 | 0.00 | 0.00 | 0.00 | 90 | 1017.7 |
| 20260510170043 | 66 | 151 | 3.0 | 9.0 | 0.00 | 0.00 | 0.00 | 88 | 1017.4 |
| 20260510165538 | 67 | 151 | 3.0 | 8.0 | 0.00 | 0.00 | 0.00 | 84 | 1017.4 |
| 20260510165035 | 67 | 180 | 5.0 | 16.0 | 0.00 | 0.00 | 0.00 | 82 | 1017.5 |
| 20260510164532 | 68 | 194 | 3.0 | 9.0 | 0.00 | 0.00 | 0.00 | 79 | 1017.7 |
| 20260510164029 | 69 | 194 | 0.0 | 5.0 | 0.00 | 0.00 | 0.00 | 77 | 1017.6 |
| 20260510163524 | 70 | 180 | 2.0 | 10.0 | 0.00 | 0.00 | 0.00 | 75 | 1017.5 |
| 20260510163020 | 71 | 0 | 0.0 | 7.0 | 0.00 | 0.00 | 0.00 | 72 | 1017.2 |
| 20260510162516 | 76 | 67 | 2.0 | 13.0 | 0.00 | 0.00 | 0.00 | 67 | 1017.1 |
| 20260510162013 | 78 | 51 | 2.0 | 2.0 | 0.00 | 0.00 | 0.00 | 68 | 1016.3 |
| 20260510161509 | 79 | 262 | 1.0 | 2.0 | 0.00 | 0.00 | 0.00 | 68 | 1015.6 |
| 20260510161006 | 79 | 254 | 0.0 | 1.0 | 0.00 | 0.00 | 0.00 | 66 | 1015.5 |
| 20260510160503 | 79 | 195 | 3.0 | 3.0 | 0.00 | 0.00 | 0.00 | 66 | 1015.3 |
| 20260510160001 | 80 | 285 | 3.0 | 4.0 | 0.00 | 0.00 | 0.00 | 64 | 1015.3 |
| 20260510155458 | 81 | 90 | 0.0 | 4.0 | 0.00 | 0.00 | 0.00 | 62 | 1014.9 |
| 20260510154955 | 81 | 257 | 2.0 | 4.0 | 0.00 | 0.00 | 0.00 | 63 | 1014.3 |
| 20260510154451 | 80 | 257 | 2.0 | 3.0 | 0.00 | 0.00 | 0.00 | 63 | 1014.0 |
| 20260510153950 | 80 | 264 | 2.0 | 3.0 | 0.00 | 0.00 | 0.00 | 62 | 1013.8 |
| 20260510153446 | 79 | 78 | 0.0 | 5.0 | 0.00 | 0.00 | 0.00 | 65 | 1013.9 |
| 20260510152943 | 78 | 234 | 1.0 | 3.0 | 0.00 | 0.00 | 0.00 | 65 | 1013.8 |
| 20260510152441 | 77 | 261 | 0.0 | 4.0 | 0.00 | 0.00 | 0.00 | 65 | 1013.6 |
| 20260510151937 | 77 | 281 | 3.0 | 3.0 | 0.00 | 0.00 | 0.00 | 66 | 1014.0 |
| 20260510151434 | 77 | 192 | 4.0 | 4.0 | 0.00 | 0.00 | 0.00 | 66 | 1014.0 |
| 20260510150930 | 76 | 68 | 2.0 | 3.0 | 0.00 | 0.00 | 0.00 | 66 | 1013.7 |
| 20260510150426 | 75 | 234 | 0.0 | 5.0 | 0.00 | 0.00 | 0.00 | 67 | 1013.8 |
| 20260510145922 | 75 | 221 | 2.0 | 4.0 | 0.00 | 0.00 | 0.00 | 67 | 1013.7 |
| 20260510145419 | 75 | 270 | 0.0 | 3.0 | 0.00 | 0.00 | 0.00 | 69 | 1013.8 |
| 20260510144915 | 74 | 345 | 2.0 | 3.0 | 0.00 | 0.00 | 0.00 | 70 | 1013.9 |
| 20260510144412 | 74 | 270 | 4.0 | 4.0 | 0.00 | 0.00 | 0.00 | 70 | 1014.0 |
| 20260510143907 | 73 | 98 | 1.0 | 2.0 | 0.00 | 0.00 | 0.00 | 72 | 1014.3 |
| 20260510143403 | 72 | 193 | 3.0 | 3.0 | 0.00 | 0.00 | 0.00 | 73 | 1014.1 |
| 20260510142900 | 71 | 180 | 2.0 | 2.0 | 0.00 | 0.00 | 0.00 | 74 | 1014.4 |
| 20260510142357 | 72 | 165 | 1.0 | 3.0 | 0.00 | 0.00 | 0.00 | 74 | 1014.6 |
| 20260510141853 | 71 | 286 | 0.0 | 2.0 | 0.00 | 0.00 | 0.00 | 75 | 1014.6 |
| 20260510141351 | 71 | 188 | 0.0 | 4.0 | 0.00 | 0.00 | 0.00 | 75 | 1014.5 |
| 20260510140848 | 71 | 261 | 2.0 | 5.0 | 0.00 | 0.00 | 0.00 | 75 | 1014.8 |
| 20260510140344 | 71 | 325 | 0.0 | 3.0 | 0.00 | 0.00 | 0.00 | 76 | 1015.0 |
| 20260510135843 | 70 | 90 | 1.0 | 3.0 | 0.00 | 0.00 | 0.00 | 77 | 1014.8 |
| 20260510135339 | 71 | 210 | 2.0 | 3.0 | 0.00 | 0.00 | 0.00 | 77 | 1015.2 |
| 20260510134837 | 71 | 59 | 2.0 | 3.0 | 0.00 | 0.00 | 0.00 | 77 | 1014.9 |
| 20260510134333 | 71 | 263 | 0.0 | 2.0 | 0.00 | 0.00 | 0.00 | 78 | 1015.0 |
| 20260510133830 | 70 | 180 | 0.0 | 3.0 | 0.00 | 0.00 | 0.00 | 78 | 1015.2 |
| 20260510133326 | 70 | 180 | 0.0 | 1.0 | 0.00 | 0.00 | 0.00 | 78 | 1015.1 |
| 20260510132821 | 70 | 186 | 0.0 | 2.0 | 0.00 | 0.00 | 0.00 | 78 | 1015.6 |
| 20260510132320 | 69 | 187 | 0.0 | 2.0 | 0.00 | 0.00 | 0.00 | 79 | 1015.2 |
| 20260510131816 | 69 | 135 | 0.0 | 2.0 | 0.00 | 0.00 | 0.00 | 79 | 1015.3 |
| 20260510131314 | 69 | 165 | 0.0 | 2.0 | 0.00 | 0.00 | 0.00 | 80 | 1015.4 |
| 20260510130811 | 69 | 90 | 0.0 | 3.0 | 0.00 | 0.00 | 0.00 | 80 | 1015.2 |
| 20260510130308 | 69 | 145 | 0.0 | 2.0 | 0.00 | 0.00 | 0.00 | 80 | 1015.0 |
| 20260510125804 | 69 | 194 | 0.0 | 3.0 | 0.00 | 0.00 | 0.00 | 80 | 1015.1 |
| 20260510125300 | 69 | 270 | 0.0 | 2.0 | 0.00 | 0.00 | 0.00 | 80 | 1014.9 |
| 20260510124757 | 69 | 143 | 2.0 | 3.0 | 0.00 | 0.00 | 0.00 | 80 | 1014.5 |
| 20260510124254 | 69 | 75 | 1.0 | 2.0 | 0.00 | 0.00 | 0.00 | 81 | 1014.5 |
| 20260510123749 | 68 | 109 | 1.0 | 2.0 | 0.00 | 0.00 | 0.00 | 81 | 1014.4 |
| 20260510123245 | 68 | 180 | 0.0 | 3.0 | 0.00 | 0.00 | 0.00 | 81 | 1014.7 |
| 20260510122742 | 69 | 254 | 0.0 | 3.0 | 0.00 | 0.00 | 0.00 | 81 | 1014.7 |
| 20260510122238 | 69 | 90 | 1.0 | 2.0 | 0.00 | 0.00 | 0.00 | 81 | 1014.6 |
| 20260510121734 | 69 | 261 | 0.0 | 2.0 | 0.00 | 0.00 | 0.00 | 82 | 1014.3 |
| 20260510121232 | 68 | 81 | 0.0 | 0.0 | 0.00 | 0.00 | 0.00 | 82 | 1014.3 |
| 20260510120730 | 68 | 169 | 0.0 | 2.0 | 0.00 | 0.00 | 0.00 | 82 | 1014.5 |
| 20260510120226 | 68 | 187 | 1.0 | 2.0 | 0.00 | 0.00 | 0.00 | 82 | 1014.3 |
| 20260510115721 | 68 | 90 | 0.0 | 2.0 | 0.00 | 0.00 | 0.00 | 83 | 1014.3 |
| 20260510115220 | 68 | 105 | 0.0 | 2.0 | 0.00 | 0.00 | 0.00 | 83 | 1014.1 |
| 20260510114715 | 68 | 81 | 0.0 | 0.0 | 0.00 | 0.00 | 0.00 | 83 | 1014.0 |
| 20260510114212 | 68 | 169 | 2.0 | 2.0 | 0.00 | 0.00 | 0.00 | 83 | 1014.2 |
| 20260510113707 | 68 | 187 | 0.0 | 0.0 | 0.00 | 0.00 | 0.00 | 83 | 1014.3 |
| 20260510113204 | 68 | 188 | 0.0 | 3.0 | 0.00 | 0.00 | 0.00 | 83 | 1013.9 |
| 20260510112700 | 68 | 84 | 0.0 | 2.0 | 0.00 | 0.00 | 0.00 | 83 | 1013.9 |
| 20260510112158 | 68 | 142 | 2.0 | 2.0 | 0.00 | 0.00 | 0.00 | 83 | 1014.1 |
| 20260510111653 | 68 | 172 | 0.0 | 2.0 | 0.00 | 0.00 | 0.00 | 83 | 1014.0 |
| 20260510111151 | 68 | 180 | 0.0 | 2.0 | 0.00 | 0.00 | 0.00 | 83 | 1014.1 |
| 20260510110645 | 68 | 90 | 0.0 | 1.0 | 0.00 | 0.00 | 0.00 | 83 | 1014.2 |
| 20260510110143 | 68 | 45 | 0.0 | 2.0 | 0.00 | 0.00 | 0.00 | 83 | 1014.3 |
| 20260510105638 | 68 | 175 | 1.0 | 2.0 | 0.00 | 0.00 | 0.00 | 83 | 1013.9 |
| 20260510105138 | 68 | 190 | 2.0 | 4.0 | 0.00 | 0.00 | 0.00 | 82 | 1013.7 |
| 20260510104635 | 68 | 90 | 1.0 | 4.0 | 0.00 | 0.00 | 0.00 | 82 | 1013.7 |
| 20260510104132 | 68 | 204 | 0.0 | 3.0 | 0.00 | 0.00 | 0.00 | 81 | 1013.9 |
| 20260510103629 | 68 | 159 | 2.0 | 2.0 | 0.00 | 0.00 | 0.00 | 81 | 1013.6 |
| 20260510103125 | 68 | 169 | 0.0 | 3.0 | 0.00 | 0.00 | 0.00 | 80 | 1013.5 |
| 20260510102620 | 68 | 225 | 2.0 | 2.0 | 0.00 | 0.00 | 0.00 | 80 | 1013.7 |
| 20260510102116 | 68 | 180 | 0.0 | 2.0 | 0.00 | 0.00 | 0.00 | 81 | 1013.7 |
| 20260510101615 | 69 | 254 | 0.0 | 3.0 | 0.00 | 0.00 | 0.00 | 81 | 1013.9 |
| 20260510101112 | 69 | 225 | 0.0 | 4.0 | 0.00 | 0.00 | 0.00 | 80 | 1013.8 |
| 20260510100608 | 69 | 170 | 0.0 | 3.0 | 0.00 | 0.00 | 0.00 | 78 | 1013.7 |
| 20260510100106 | 70 | 198 | 1.0 | 7.0 | 0.00 | 0.00 | 0.00 | 77 | 1014.0 |
| 20260510095601 | 70 | 180 | 0.0 | 3.0 | 0.00 | 0.00 | 0.00 | 77 | 1014.0 |
| 20260510095102 | 71 | 180 | 0.0 | 3.0 | 0.00 | 0.00 | 0.00 | 77 | 1013.5 |
| 20260510094601 | 71 | 180 | 1.0 | 3.0 | 0.00 | 0.00 | 0.00 | 77 | 1013.6 |
| 20260510094056 | 71 | 38 | 0.0 | 4.0 | 0.00 | 0.00 | 0.00 | 77 | 1013.6 |
| 20260510093553 | 71 | 166 | 0.0 | 3.0 | 0.00 | 0.00 | 0.00 | 78 | 1013.3 |
| 20260510093050 | 71 | 180 | 0.0 | 4.0 | 0.00 | 0.00 | 0.00 | 78 | 1013.0 |
| 20260510092547 | 71 | 180 | 0.0 | 3.0 | 0.00 | 0.00 | 0.00 | 78 | 1013.1 |
| 20260510092046 | 71 | 90 | 0.0 | 4.0 | 0.00 | 0.00 | 0.00 | 78 | 1013.1 |
| 20260510091543 | 71 | 81 | 0.0 | 5.0 | 0.00 | 0.00 | 0.00 | 78 | 1013.0 |
| 20260510091039 | 71 | 191 | 0.0 | 6.0 | 0.00 | 0.00 | 0.00 | 79 | 1013.5 |
| 20260510090537 | 71 | 182 | 4.0 | 7.0 | 0.00 | 0.00 | 0.00 | 78 | 1013.4 |
| 20260510090032 | 72 | 169 | 2.0 | 5.0 | 0.00 | 0.00 | 0.00 | 78 | 1013.4 |
| 20260510085533 | 73 | 106 | 3.0 | 8.0 | 0.00 | 0.00 | 0.00 | 81 | 1012.6 |
| 20260510085029 | 73 | 180 | 0.0 | 5.0 | 0.00 | 0.00 | 0.00 | 85 | 1012.5 |
| 20260510084526 | 74 | 57 | 2.0 | 4.0 | 0.00 | 0.00 | 0.00 | 86 | 1012.7 |
| 20260510084023 | 75 | 67 | 3.0 | 4.0 | 0.00 | 0.00 | 0.00 | 86 | 1012.4 |
| 20260510083519 | 75 | 37 | 0.0 | 5.0 | 0.00 | 0.00 | 0.00 | 86 | 1012.3 |
| 20260510083015 | 75 | 33 | 0.0 | 4.0 | 0.00 | 0.00 | 0.00 | 86 | 1012.1 |
| 20260510082513 | 75 | 90 | 0.0 | 2.0 | 0.00 | 0.00 | 0.00 | 85 | 1011.8 |
| 20260510082012 | 75 | 172 | 0.0 | 2.0 | 0.00 | 0.00 | 0.00 | 85 | 1011.7 |
| 20260510081508 | 75 | 186 | 0.0 | 6.0 | 0.00 | 0.00 | 0.00 | 84 | 1012.2 |
| 20260510081005 | 75 | 220 | 0.0 | 3.0 | 0.00 | 0.00 | 0.00 | 85 | 1012.6 |
| 20260510080502 | 74 | 71 | 0.0 | 3.0 | 0.00 | 0.00 | 0.00 | 85 | 1012.1 |
| 20260510080000 | 74 | 74 | 0.0 | 2.0 | 0.00 | 0.00 | 0.00 | 86 | 1011.8 |
| 20260510075457 | 73 | 66 | 0.0 | 1.0 | 0.00 | 0.00 | 0.00 | 86 | 1011.4 |
| 20260510074954 | 73 | 81 | 0.0 | 0.0 | 0.00 | 0.00 | 0.00 | 85 | 1011.1 |
| 20260510074452 | 74 | 270 | 0.0 | 0.0 | 0.00 | 0.00 | 0.00 | 85 | 1010.7 |
| 20260510073947 | 74 | 270 | 0.0 | 0.0 | 0.00 | 0.00 | 0.00 | 84 | 1010.8 |
| 20260510073443 | 74 | 270 | 0.0 | 0.0 | 0.00 | 0.00 | 0.00 | 84 | 1010.8 |
| 20260510072940 | 75 | 270 | 0.0 | 0.0 | 0.00 | 0.00 | 0.00 | 83 | 1010.6 |
| 20260510072437 | 75 | 18 | 0.0 | 1.0 | 0.00 | 0.00 | 0.00 | 83 | 1010.7 |
| 20260510071932 | 75 | 270 | 0.0 | 1.0 | 0.00 | 0.00 | 0.00 | 82 | 1010.6 |
| 20260510071429 | 75 | 188 | 0.0 | 0.0 | 0.00 | 0.00 | 0.00 | 82 | 1010.7 |
| 20260510070927 | 75 | 120 | 0.0 | 1.0 | 0.00 | 0.00 | 0.00 | 81 | 1010.6 |
| 20260510070424 | 75 | 172 | 0.0 | 0.0 | 0.00 | 0.00 | 0.00 | 81 | 1010.6 |
| 20260510065920 | 75 | 175 | 0.0 | 1.0 | 0.00 | 0.00 | 0.00 | 80 | 1010.2 |
| 20260510065416 | 76 | 172 | 0.0 | 2.0 | 0.00 | 0.00 | 0.00 | 80 | 1010.1 |
| 20260510064913 | 76 | 220 | 2.0 | 3.0 | 0.00 | 0.00 | 0.00 | 80 | 1009.9 |
| 20260510064411 | 76 | 185 | 1.0 | 3.0 | 0.00 | 0.00 | 0.00 | 79 | 1010.6 |
| 20260510063907 | 76 | 216 | 2.0 | 5.0 | 0.00 | 0.00 | 0.00 | 79 | 1011.3 |
| 20260510063403 | 76 | 193 | 3.0 | 4.0 | 0.00 | 0.00 | 0.00 | 78 | 1011.3 |
| 20260510062901 | 76 | 195 | 0.0 | 4.0 | 0.00 | 0.00 | 0.00 | 77 | 1011.8 |
| 20260510062355 | 76 | 166 | 1.0 | 6.0 | 0.00 | 0.00 | 0.00 | 77 | 1012.0 |
| 20260510061851 | 76 | 82 | 1.0 | 5.0 | 0.00 | 0.00 | 0.00 | 76 | 1012.5 |
| 20260510061348 | 77 | 16 | 3.0 | 4.0 | 0.00 | 0.00 | 0.00 | 74 | 1012.6 |
| 20260510060844 | 77 | 179 | 5.0 | 5.0 | 0.00 | 0.00 | 0.00 | 73 | 1012.2 |
| 20260510060341 | 77 | 0 | 3.0 | 4.0 | 0.00 | 0.00 | 0.00 | 72 | 1012.2 |
| 20260510055838 | 77 | 123 | 2.0 | 4.0 | 0.00 | 0.00 | 0.00 | 72 | 1011.9 |
| 20260510055337 | 75 | 180 | 0.0 | 3.0 | 0.00 | 0.00 | 0.00 | 74 | 1011.3 |
| 20260510054836 | 75 | 0 | 0.0 | 1.0 | 0.00 | 0.00 | 0.00 | 74 | 1010.4 |
| 20260510054332 | 75 | 97 | 0.0 | 1.0 | 0.00 | 0.00 | 0.00 | 73 | 1010.1 |
| 20260510053827 | 75 | 283 | 0.0 | 0.0 | 0.00 | 0.00 | 0.00 | 74 | 1009.6 |
| 20260510053323 | 75 | 283 | 0.0 | 0.0 | 0.00 | 0.00 | 0.00 | 73 | 1009.4 |
| 20260510052820 | 76 | 283 | 0.0 | 1.0 | 0.00 | 0.00 | 0.00 | 72 | 1009.1 |
| 20260510052315 | 76 | 187 | 0.0 | 0.0 | 0.00 | 0.00 | 0.00 | 71 | 1009.4 |
| 20260510051812 | 76 | 165 | 0.0 | 1.0 | 0.00 | 0.00 | 0.00 | 70 | 1009.5 |
| 20260510051308 | 76 | 186 | 0.0 | 1.0 | 0.00 | 0.00 | 0.00 | 70 | 1009.6 |
| 20260510050806 | 76 | 162 | 0.0 | 3.0 | 0.00 | 0.00 | 0.00 | 69 | 1009.3 |
| 20260510050302 | 77 | 172 | 0.0 | 2.0 | 0.00 | 0.00 | 0.00 | 69 | 1009.4 |
| 20260510045759 | 77 | 187 | 0.0 | 2.0 | 0.00 | 0.00 | 0.00 | 69 | 1009.1 |
| 20260510045255 | 77 | 180 | 0.0 | 2.0 | 0.00 | 0.00 | 0.00 | 69 | 1009.2 |
| 20260510044753 | 77 | 180 | 1.0 | 1.0 | 0.00 | 0.00 | 0.00 | 69 | 1008.9 |
| 20260510044250 | 77 | 168 | 0.0 | 1.0 | 0.00 | 0.00 | 0.00 | 68 | 1008.8 |
| 20260510043746 | 77 | 180 | 0.0 | 1.0 | 0.00 | 0.00 | 0.00 | 68 | 1008.6 |
| 20260510043243 | 77 | 184 | 2.0 | 3.0 | 0.00 | 0.00 | 0.00 | 68 | 1008.7 |
| 20260510042740 | 77 | 185 | 1.0 | 2.0 | 0.00 | 0.00 | 0.00 | 68 | 1008.7 |
| 20260510042235 | 77 | 195 | 0.0 | 1.0 | 0.00 | 0.00 | 0.00 | 69 | 1009.0 |
| 20260510041733 | 77 | 185 | 0.0 | 2.0 | 0.00 | 0.00 | 0.00 | 69 | 1008.9 |
| 20260510041230 | 77 | 180 | 1.0 | 1.0 | 0.00 | 0.00 | 0.00 | 69 | 1009.2 |
| 20260510040727 | 77 | 174 | 0.0 | 0.0 | 0.00 | 0.00 | 0.00 | 68 | 1009.0 |
| 20260510040224 | 77 | 187 | 0.0 | 2.0 | 0.00 | 0.00 | 0.00 | 68 | 1009.1 |
| 20260510035719 | 77 | 180 | 0.0 | 2.0 | 0.00 | 0.00 | 0.00 | 68 | 1009.2 |
| 20260510035215 | 77 | 198 | 0.0 | 2.0 | 0.00 | 0.00 | 0.00 | 68 | 1009.2 |
| 20260510034711 | 77 | 194 | 0.0 | 0.0 | 0.00 | 0.00 | 0.00 | 68 | 1009.1 |
| 20260510034209 | 77 | 180 | 0.0 | 0.0 | 0.00 | 0.00 | 0.00 | 68 | 1009.1 |
| 20260510033705 | 77 | 180 | 1.0 | 1.0 | 0.00 | 0.00 | 0.00 | 67 | 1009.1 |
| 20260510033203 | 77 | 195 | 0.0 | 1.0 | 0.00 | 0.00 | 0.00 | 67 | 1009.3 |
| 20260510032659 | 77 | 180 | 1.0 | 1.0 | 0.00 | 0.00 | 0.00 | 68 | 1009.3 |
| 20260510032155 | 77 | 186 | 0.0 | 1.0 | 0.00 | 0.00 | 0.00 | 69 | 1009.4 |
| 20260510031649 | 77 | 279 | 0.0 | 0.0 | 0.00 | 0.00 | 0.00 | 68 | 1009.5 |
| 20260510031147 | 78 | 180 | 0.0 | 0.0 | 0.00 | 0.00 | 0.00 | 67 | 1009.2 |
| 20260510030646 | 78 | 195 | 0.0 | 1.0 | 0.00 | 0.00 | 0.00 | 66 | 1009.3 |
| 20260510030144 | 78 | 180 | 0.0 | 0.0 | 0.00 | 0.00 | 0.00 | 64 | 1009.3 |
| 20260510025641 | 79 | 180 | 0.0 | 0.0 | 0.00 | 0.00 | 0.00 | 64 | 1009.3 |
| 20260510025138 | 79 | 180 | 0.0 | 1.0 | 0.00 | 0.00 | 0.00 | 63 | 1009.4 |
| 20260510024635 | 79 | 180 | 0.0 | 0.0 | 0.00 | 0.00 | 0.00 | 62 | 1009.5 |
| 20260510024132 | 80 | 180 | 0.0 | 0.0 | 0.00 | 0.00 | 0.00 | 62 | 1009.2 |
| 20260510023628 | 80 | 180 | 0.0 | 0.0 | 0.00 | 0.00 | 0.00 | 61 | 1009.2 |
| 20260510023125 | 80 | 180 | 0.0 | 0.0 | 0.00 | 0.00 | 0.00 | 61 | 1009.1 |
| 20260510022625 | 80 | 191 | 0.0 | 2.0 | 0.00 | 0.00 | 0.00 | 61 | 1009.3 |
| 20260510022120 | 80 | 203 | 0.0 | 0.0 | 0.00 | 0.00 | 0.00 | 60 | 1008.9 |
| 20260510021616 | 80 | 270 | 0.0 | 1.0 | 0.00 | 0.00 | 0.00 | 59 | 1008.9 |
| 20260510021114 | 80 | 195 | 0.0 | 0.0 | 0.00 | 0.00 | 0.00 | 60 | 1009.0 |
| 20260510020608 | 81 | 192 | 0.0 | 1.0 | 0.00 | 0.00 | 0.00 | 59 | 1008.8 |
| 20260510020103 | 81 | 180 | 0.0 | 1.0 | 0.00 | 0.00 | 0.00 | 60 | 1008.9 |
| 20260510015559 | 81 | 203 | 0.0 | 0.0 | 0.00 | 0.00 | 0.00 | 59 | 1008.9 |
| 20260510015056 | 81 | 186 | 0.0 | 0.0 | 0.00 | 0.00 | 0.00 | 59 | 1008.7 |
| 20260510014552 | 82 | 186 | 0.0 | 1.0 | 0.00 | 0.00 | 0.00 | 59 | 1008.7 |
| 20260510014050 | 82 | 206 | 0.0 | 0.0 | 0.00 | 0.00 | 0.00 | 58 | 1008.7 |
| 20260510013544 | 82 | 194 | 0.0 | 1.0 | 0.00 | 0.00 | 0.00 | 59 | 1008.6 |
| 20260510013040 | 82 | 262 | 0.0 | 1.0 | 0.00 | 0.00 | 0.00 | 58 | 1008.7 |
| 20260510012539 | 82 | 195 | 0.0 | 0.0 | 0.00 | 0.00 | 0.00 | 59 | 1008.5 |
| 20260510012037 | 83 | 206 | 0.0 | 2.0 | 0.00 | 0.00 | 0.00 | 59 | 1008.5 |
| 20260510011536 | 83 | 261 | 0.0 | 1.0 | 0.00 | 0.00 | 0.00 | 59 | 1008.2 |
| 20260510011032 | 83 | 180 | 0.0 | 2.0 | 0.00 | 0.00 | 0.00 | 59 | 1008.1 |
| 20260510010529 | 84 | 198 | 0.0 | 3.0 | 0.00 | 0.00 | 0.00 | 59 | 1008.3 |
| 20260510010026 | 84 | 209 | 0.0 | 0.0 | 0.00 | 0.00 | 0.00 | 60 | 1008.1 |
| 20260510005521 | 84 | 261 | 0.0 | 2.0 | 0.00 | 0.00 | 0.00 | 59 | 1008.0 |
| 20260510005019 | 84 | 188 | 0.0 | 2.0 | 0.00 | 0.00 | 0.00 | 59 | 1007.8 |
| 20260510004517 | 85 | 286 | 0.0 | 0.0 | 0.00 | 0.00 | 0.00 | 59 | 1008.1 |
| 20260510004015 | 85 | 198 | 0.0 | 2.0 | 0.00 | 0.00 | 0.00 | 59 | 1008.0 |
| 20260510003511 | 86 | 203 | 0.0 | 2.0 | 0.00 | 0.00 | 0.00 | 58 | 1008.0 |
| 20260510003006 | 86 | 212 | 0.0 | 2.0 | 0.00 | 0.00 | 0.00 | 58 | 1007.8 |
| 20260510002502 | 86 | 312 | 2.0 | 2.0 | 0.00 | 0.00 | 0.00 | 57 | 1007.7 |
| 20260510001959 | 87 | 180 | 0.0 | 3.0 | 0.00 | 0.00 | 0.00 | 56 | 1007.8 |
| 20260510001457 | 87 | 257 | 0.0 | 3.0 | 0.00 | 0.00 | 0.00 | 56 | 1007.9 |
| 20260510000954 | 88 | 254 | 1.0 | 2.0 | 0.00 | 0.00 | 0.00 | 54 | 1007.9 |
| 20260510000450 | 90 | 180 | 0.0 | 3.0 | 0.00 | 0.00 | 0.00 | 54 | 1007.8 |
| 20260509235947 | 91 | 63 | 0.0 | 2.0 | 0.00 | 0.00 | 0.00 | 53 | 1008.0 |
| 20260509235443 | 92 | 209 | 0.0 | 2.0 | 0.00 | 0.00 | 0.00 | 52 | 1007.8 |
| 20260509234940 | 93 | 270 | 0.0 | 2.0 | 0.00 | 0.00 | 0.00 | 49 | 1008.0 |
| 20260509234437 | 94 | 276 | 0.0 | 2.0 | 0.00 | 0.00 | 0.00 | 44 | 1008.0 |
| 20260509233934 | 93 | 279 | 1.0 | 2.0 | 0.00 | 0.00 | 0.00 | 46 | 1007.7 |
| 20260509233432 | 91 | 262 | 1.0 | 2.0 | 0.00 | 0.00 | 0.00 | 49 | 1008.2 |
| 20260509232928 | 91 | 270 | 2.0 | 2.0 | 0.00 | 0.00 | 0.00 | 48 | 1008.1 |
| 20260509232425 | 90 | 261 | 1.0 | 3.0 | 0.00 | 0.00 | 0.00 | 50 | 1008.2 |
| 20260509231921 | 90 | 270 | 0.0 | 2.0 | 0.00 | 0.00 | 0.00 | 49 | 1008.0 |
| 20260509231418 | 91 | 257 | 0.0 | 2.0 | 0.00 | 0.00 | 0.00 | 48 | 1008.2 |
| 20260509230916 | 90 | 255 | 2.0 | 3.0 | 0.00 | 0.00 | 0.00 | 50 | 1008.2 |
| 20260509230413 | 91 | 270 | 0.0 | 3.0 | 0.00 | 0.00 | 0.00 | 50 | 1008.0 |
| 20260509225908 | 91 | 270 | 0.0 | 2.0 | 0.00 | 0.00 | 0.00 | 49 | 1008.0 |
| 20260509225406 | 91 | 337 | 0.0 | 1.0 | 0.00 | 0.00 | 0.00 | 44 | 1008.1 |
| 20260509224901 | 91 | 270 | 2.0 | 2.0 | 0.00 | 0.00 | 0.00 | 50 | 1008.1 |
| 20260509224357 | 89 | 264 | 2.0 | 3.0 | 0.00 | 0.00 | 0.00 | 51 | 1008.1 |
| 20260509223855 | 89 | 270 | 2.0 | 3.0 | 0.00 | 0.00 | 0.00 | 47 | 1008.0 |
| 20260509223351 | 91 | 270 | 0.0 | 2.0 | 0.00 | 0.00 | 0.00 | 50 | 1008.0 |
| 20260509222848 | 91 | 276 | 0.0 | 2.0 | 0.00 | 0.00 | 0.00 | 48 | 1008.1 |
| 20260509222348 | 91 | 276 | 0.0 | 3.0 | 0.00 | 0.00 | 0.00 | 48 | 1008.2 |
| 20260509221844 | 91 | 200 | 1.0 | 3.0 | 0.00 | 0.00 | 0.00 | 48 | 1008.2 |
| 20260509221342 | 90 | 192 | 0.0 | 2.0 | 0.00 | 0.00 | 0.00 | 46 | 1008.0 |
| 20260509220837 | 90 | 270 | 1.0 | 2.0 | 0.00 | 0.00 | 0.00 | 46 | 1007.9 |
| 20260509220333 | 90 | 186 | 0.0 | 0.0 | 0.00 | 0.00 | 0.00 | 45 | 1008.0 |
| 20260509215829 | 90 | 90 | 0.0 | 2.0 | 0.00 | 0.00 | 0.00 | 46 | 1008.3 |
| 20260509215326 | 90 | 188 | 0.0 | 1.0 | 0.00 | 0.00 | 0.00 | 46 | 1007.9 |
| 20260509214823 | 90 | 289 | 0.0 | 0.0 | 0.00 | 0.00 | 0.00 | 43 | 1008.2 |
| 20260509214320 | 89 | 185 | 0.0 | 2.0 | 0.00 | 0.00 | 0.00 | 47 | 1008.1 |
| 20260509213817 | 89 | 209 | 0.0 | 0.0 | 0.00 | 0.00 | 0.00 | 46 | 1008.3 |
| 20260509213312 | 89 | 74 | 0.0 | 2.0 | 0.00 | 0.00 | 0.00 | 49 | 1008.3 |
| 20260509212810 | 89 | 300 | 0.0 | 4.0 | 0.00 | 0.00 | 0.00 | 48 | 1008.3 |
| 20260509212308 | 89 | 32 | 0.0 | 3.0 | 0.00 | 0.00 | 0.00 | 49 | 1008.4 |
| 20260509211803 | 88 | 212 | 0.0 | 4.0 | 0.00 | 0.00 | 0.00 | 49 | 1008.5 |
| 20260509211259 | 88 | 289 | 2.0 | 3.0 | 0.00 | 0.00 | 0.00 | 49 | 1008.5 |
| 20260509210756 | 89 | 84 | 0.0 | 5.0 | 0.00 | 0.00 | 0.00 | 50 | 1008.8 |
| 20260509210254 | 89 | 71 | 2.0 | 5.0 | 0.00 | 0.00 | 0.00 | 52 | 1008.6 |
| 20260509205753 | 88 | 170 | 0.0 | 2.0 | 0.00 | 0.00 | 0.00 | 52 | 1008.9 |
| 20260509205248 | 89 | 9 | 2.0 | 3.0 | 0.00 | 0.00 | 0.00 | 50 | 1008.7 |
| 20260509204744 | 88 | 220 | 0.0 | 2.0 | 0.00 | 0.00 | 0.00 | 49 | 1009.0 |
| 20260509204241 | 88 | 338 | 2.0 | 2.0 | 0.00 | 0.00 | 0.00 | 53 | 1009.1 |
| 20260509203737 | 88 | 194 | 1.0 | 3.0 | 0.00 | 0.00 | 0.00 | 52 | 1009.1 |
| 20260509203235 | 88 | 73 | 2.0 | 3.0 | 0.00 | 0.00 | 0.00 | 53 | 1009.1 |
| 20260509202730 | 89 | 174 | 1.0 | 3.0 | 0.00 | 0.00 | 0.00 | 54 | 1009.3 |
| 20260509202226 | 88 | 180 | 0.0 | 2.0 | 0.00 | 0.00 | 0.00 | 54 | 1009.1 |
| 20260509201721 | 87 | 180 | 0.0 | 3.0 | 0.00 | 0.00 | 0.00 | 54 | 1009.4 |
| 20260509201218 | 87 | 175 | 0.0 | 2.0 | 0.00 | 0.00 | 0.00 | 56 | 1009.5 |
| 20260509200714 | 87 | 285 | 1.0 | 2.0 | 0.00 | 0.00 | 0.00 | 55 | 1009.7 |
| 20260509200209 | 87 | 0 | 0.0 | 3.0 | 0.00 | 0.00 | 0.00 | 51 | 1009.6 |
| 20260509195705 | 88 | 283 | 1.0 | 2.0 | 0.00 | 0.00 | 0.00 | 54 | 1009.7 |
| 20260509195201 | 87 | 261 | 0.0 | 3.0 | 0.00 | 0.00 | 0.00 | 57 | 1009.6 |
| 20260509194701 | 86 | 173 | 0.0 | 3.0 | 0.00 | 0.00 | 0.00 | 57 | 1009.7 |
| 20260509194158 | 87 | 60 | 0.0 | 2.0 | 0.00 | 0.00 | 0.00 | 57 | 1009.7 |
| 20260509193654 | 87 | 196 | 2.0 | 2.0 | 0.00 | 0.00 | 0.00 | 56 | 1009.6 |
| 20260509193149 | 87 | 70 | 2.0 | 2.0 | 0.00 | 0.00 | 0.00 | 58 | 1009.9 |
| 20260509192646 | 87 | 240 | 0.0 | 3.0 | 0.00 | 0.00 | 0.00 | 59 | 1009.8 |
| 20260509192141 | 87 | 180 | 0.0 | 3.0 | 0.00 | 0.00 | 0.00 | 61 | 1009.9 |
| 20260509191641 | 86 | 346 | 0.0 | 3.0 | 0.00 | 0.00 | 0.00 | 60 | 1010.3 |
| 20260509191138 | 86 | 195 | 0.0 | 2.0 | 0.00 | 0.00 | 0.00 | 61 | 1009.9 |
| 20260509190634 | 86 | 90 | 1.0 | 2.0 | 0.00 | 0.00 | 0.00 | 61 | 1009.9 |
| 20260509190132 | 86 | 277 | 0.0 | 3.0 | 0.00 | 0.00 | 0.00 | 65 | 1010.0 |
| 20260509185630 | 86 | 337 | 0.0 | 2.0 | 0.00 | 0.00 | 0.00 | 62 | 1010.1 |
| 20260509185125 | 86 | 187 | 0.0 | 2.0 | 0.00 | 0.00 | 0.00 | 66 | 1010.0 |
| 20260509184624 | 86 | 28 | 2.0 | 3.0 | 0.00 | 0.00 | 0.00 | 66 | 1010.0 |
| 20260509184120 | 86 | 53 | 0.0 | 2.0 | 0.00 | 0.00 | 0.00 | 66 | 1010.1 |
| 20260509183616 | 86 | 284 | 0.0 | 4.0 | 0.00 | 0.00 | 0.00 | 65 | 1010.2 |
| 20260509183112 | 86 | 79 | 0.0 | 4.0 | 0.00 | 0.00 | 0.00 | 66 | 1010.1 |
| 20260509182608 | 86 | 195 | 2.0 | 4.0 | 0.00 | 0.00 | 0.00 | 66 | 1010.1 |
| 20260509182105 | 86 | 206 | 1.0 | 1.0 | 0.00 | 0.00 | 0.00 | 65 | 1010.3 |
| 20260509181603 | 85 | 5 | 0.0 | 3.0 | 0.00 | 0.00 | 0.00 | 66 | 1010.4 |
| 20260509181100 | 85 | 233 | 0.0 | 2.0 | 0.00 | 0.00 | 0.00 | 67 | 1010.2 |
| 20260509180556 | 84 | 52 | 0.0 | 4.0 | 0.00 | 0.00 | 0.00 | 66 | 1010.4 |
| 20260509180054 | 85 | 48 | 3.0 | 3.0 | 0.00 | 0.00 | 0.00 | 67 | 1010.3 |
| 20260509175549 | 85 | 235 | 0.0 | 2.0 | 0.00 | 0.00 | 0.00 | 67 | 1010.5 |
| 20260509175046 | 84 | 65 | 2.0 | 4.0 | 0.00 | 0.00 | 0.00 | 67 | 1010.4 |
| 20260509174542 | 86 | 195 | 2.0 | 3.0 | 0.00 | 0.00 | 0.00 | 66 | 1010.5 |